Tiempo cada hora Allur Reservior Lake

Hoy, 31 Julio, Sábado

Tiempo Temperatura Precipitaciones Viento Presión Humedad
00:00 +35°C° 0 mm 8 mps 753 mmHg 46%
01:00 +34°C° 0 mm 8 mps 753 mmHg 48%
02:00 +33°C° 0 mm 8 mps 753 mmHg 50%
03:00 +33°C° 0 mm 8 mps 753 mmHg 52%
04:00 +32°C° 0 mm 7 mps 753 mmHg 53%
05:00 +32°C° 0 mm 7 mps 754 mmHg 55%
06:00 +32°C° 0 mm 8 mps 754 mmHg 53%
07:00 +33°C° 0 mm 8 mps 755 mmHg 51%
08:00 +34°C° 0 mm 9 mps 755 mmHg 49%
09:00 +35°C° 0 mm 9 mps 755 mmHg 45%
10:00 +38°C° 0 mm 9 mps 754 mmHg 40%
11:00 +40°C° 0 mm 8 mps 754 mmHg 36%
12:00 +40°C° 0 mm 8 mps 753 mmHg 35%
13:00 +41°C° 0 mm 7 mps 752 mmHg 33%
14:00 +42°C° 0 mm 6 mps 751 mmHg 31%
15:00 +41°C° 0.2 mm 6 mps 751 mmHg 33%
16:00 +40°C° 0.2 mm 6 mps 752 mmHg 36%
17:00 +39°C° 0.2 mm 6 mps 752 mmHg 38%
18:00 +37°C° 0.1 mm 5 mps 752 mmHg 40%
19:00 +37°C° 0.1 mm 5 mps 753 mmHg 43%
20:00 +36°C° 0.1 mm 5 mps 754 mmHg 45%
21:00 +35°C° 0.2 mm 6 mps 754 mmHg 46%
22:00 +35°C° 0.2 mm 6 mps 754 mmHg 48%
23:00 +35°C° 0.2 mm 7 mps 754 mmHg 49%

Mañana, 1 Agosto, Domingo

Tiempo Temperatura Precipitaciones Viento Presión Humedad
00:00 +34°C° 0 mm 7 mps 753 mmHg 50%
01:00 +33°C° 0 mm 7 mps 753 mmHg 52%
02:00 +33°C° 0 mm 8 mps 753 mmHg 53%
03:00 +32°C° 0 mm 7 mps 753 mmHg 55%
04:00 +32°C° 0 mm 7 mps 753 mmHg 57%
05:00 +30°C° 0 mm 7 mps 753 mmHg 58%
06:00 +32°C° 0 mm 8 mps 754 mmHg 57%
07:00 +32°C° 0 mm 8 mps 754 mmHg 55%
08:00 +33°C° 0 mm 9 mps 755 mmHg 53%
09:00 +35°C° 0 mm 9 mps 754 mmHg 48%
10:00 +37°C° 0 mm 9 mps 754 mmHg 43%
11:00 +39°C° 0 mm 9 mps 753 mmHg 38%
12:00 +40°C° 0 mm 8 mps 752 mmHg 35%
13:00 +41°C° 0 mm 8 mps 751 mmHg 32%
14:00 +43°C° 0 mm 8 mps 751 mmHg 29%
15:00 +41°C° 0 mm 7 mps 750 mmHg 29%
16:00 +41°C° 0 mm 7 mps 750 mmHg 29%
17:00 +41°C° 0 mm 6 mps 750 mmHg 29%
18:00 +40°C° 0 mm 6 mps 751 mmHg 31%
19:00 +40°C° 0 mm 5 mps 751 mmHg 33%
20:00 +39°C° 0 mm 5 mps 752 mmHg 35%
21:00 +37°C° 0 mm 5 mps 752 mmHg 37%
22:00 +37°C° 0 mm 5 mps 753 mmHg 39%
23:00 +36°C° 0 mm 5 mps 753 mmHg 41%

Pasado mañana, 2 Agosto, Lunes

Tiempo Temperatura Precipitaciones Viento Presión Humedad
00:00 +35°C° 0 mm 6 mps 752 mmHg 44%
01:00 +34°C° 0 mm 7 mps 752 mmHg 47%
02:00 +33°C° 0 mm 8 mps 752 mmHg 50%
03:00 +33°C° 0 mm 8 mps 752 mmHg 52%
04:00 +32°C° 0 mm 8 mps 752 mmHg 54%
05:00 +31°C° 0 mm 8 mps 752 mmHg 56%
06:00 +32°C° 0 mm 9 mps 753 mmHg 54%
07:00 +33°C° 0 mm 9 mps 754 mmHg 51%
08:00 +34°C° 0 mm 9 mps 754 mmHg 49%
09:00 +35°C° 0 mm 9 mps 754 mmHg 44%
10:00 +38°C° 0 mm 8 mps 754 mmHg 40%
11:00 +39°C° 0 mm 8 mps 753 mmHg 35%
12:00 +40°C° 0 mm 7 mps 753 mmHg 33%
13:00 +41°C° 0 mm 7 mps 752 mmHg 31%
14:00 +42°C° 0 mm 6 mps 751 mmHg 28%
15:00 +42°C° 0 mm 6 mps 751 mmHg 29%
16:00 +42°C° 0 mm 5 mps 751 mmHg 29%
17:00 +41°C° 0 mm 5 mps 751 mmHg 30%
18:00 +40°C° 0.3 mm 4 mps 752 mmHg 35%
19:00 +38°C° 0.3 mm 4 mps 753 mmHg 40%
20:00 +36°C° 0.3 mm 4 mps 753 mmHg 45%
21:00 +36°C° 0.1 mm 4 mps 754 mmHg 44%
22:00 +36°C° 0.1 mm 4 mps 754 mmHg 44%
23:00 +36°C° 0.1 mm 5 mps 754 mmHg 43%

3 Agosto, Martes

Tiempo Temperatura Precipitaciones Viento Presión Humedad
00:00 +35°C° 0 mm 6 mps 754 mmHg 45%
01:00 +34°C° 0 mm 6 mps 753 mmHg 46%
02:00 +33°C° 0 mm 7 mps 753 mmHg 48%
03:00 +33°C° 0 mm 7 mps 753 mmHg 50%
04:00 +32°C° 0 mm 7 mps 754 mmHg 53%
05:00 +30°C° 0 mm 7 mps 754 mmHg 55%
06:00 +32°C° 0 mm 8 mps 754 mmHg 53%
07:00 +33°C° 0 mm 8 mps 755 mmHg 51%
08:00 +33°C° 0 mm 9 mps 755 mmHg 49%
09:00 +35°C° 0 mm 9 mps 755 mmHg 45%
10:00 +37°C° 0 mm 8 mps 755 mmHg 41%
11:00 +39°C° 0 mm 8 mps 755 mmHg 37%
12:00 +39°C° 0 mm 8 mps 754 mmHg 35%
13:00 +40°C° 0 mm 7 mps 753 mmHg 33%
14:00 +41°C° 0 mm 7 mps 752 mmHg 31%
15:00 +41°C° 0 mm 7 mps 752 mmHg 32%
16:00 +40°C° 0 mm 7 mps 752 mmHg 33%
17:00 +40°C° 0 mm 6 mps 752 mmHg 33%
18:00 +39°C° 0.1 mm 6 mps 753 mmHg 36%
19:00 +38°C° 0.1 mm 6 mps 754 mmHg 38%
20:00 +37°C° 0.1 mm 5 mps 754 mmHg 41%
21:00 +36°C° 0 mm 5 mps 754 mmHg 41%
22:00 +36°C° 0 mm 5 mps 754 mmHg 42%
23:00 +36°C° 0 mm 5 mps 755 mmHg 43%

4 Agosto, Miércoles

Tiempo Temperatura Precipitaciones Viento Presión Humedad
00:00 +35°C° 0 mm 6 mps 754 mmHg 46%
01:00 +34°C° 0 mm 7 mps 754 mmHg 49%
02:00 +33°C° 0 mm 8 mps 753 mmHg 52%
03:00 +33°C° 0 mm 7 mps 754 mmHg 54%
04:00 +32°C° 0 mm 7 mps 754 mmHg 57%
05:00 +32°C° 0 mm 7 mps 755 mmHg 59%
06:00 +32°C° 0 mm 8 mps 755 mmHg 57%
07:00 +33°C° 0 mm 8 mps 755 mmHg 54%
08:00 +34°C° 0 mm 9 mps 756 mmHg 52%
09:00 +37°C° 0 mm 8 mps 755 mmHg 47%
10:00 +38°C° 0 mm 8 mps 755 mmHg 42%
11:00 +40°C° 0 mm 7 mps 754 mmHg 37%
12:00 +41°C° 0 mm 7 mps 754 mmHg 35%
13:00 +41°C° 0 mm 6 mps 753 mmHg 33%
14:00 +42°C° 0 mm 6 mps 752 mmHg 30%
15:00 +41°C° 0.2 mm 6 mps 752 mmHg 33%
16:00 +40°C° 0.2 mm 5 mps 752 mmHg 35%
17:00 +39°C° 0.2 mm 5 mps 752 mmHg 38%
18:00 +38°C° 0.2 mm 6 mps 752 mmHg 40%
19:00 +38°C° 0.2 mm 6 mps 753 mmHg 42%
20:00 +36°C° 0.2 mm 6 mps 754 mmHg 45%
21:00 +35°C° 0.2 mm 6 mps 754 mmHg 49%
22:00 +34°C° 0.2 mm 7 mps 754 mmHg 53%
23:00 +33°C° 0.2 mm 7 mps 754 mmHg 57%

5 Agosto, Jueves

Tiempo Temperatura Precipitaciones Viento Presión Humedad
00:00 +33°C° 0.1 mm 7 mps 754 mmHg 58%
01:00 +32°C° 0.1 mm 7 mps 753 mmHg 59%
02:00 +32°C° 0.1 mm 8 mps 753 mmHg 60%
03:00 +32°C° 0 mm 7 mps 753 mmHg 61%
04:00 +32°C° 0 mm 7 mps 753 mmHg 62%
05:00 +30°C° 0 mm 7 mps 753 mmHg 63%
06:00 +32°C° 0 mm 8 mps 754 mmHg 60%
07:00 +33°C° 0 mm 8 mps 754 mmHg 57%
08:00 +34°C° 0 mm 9 mps 754 mmHg 54%
09:00 +35°C° 0 mm 8 mps 754 mmHg 49%
10:00 +37°C° 0 mm 8 mps 754 mmHg 45%
11:00 +39°C° 0 mm 8 mps 753 mmHg 40%
12:00 +40°C° 0 mm 7 mps 753 mmHg 37%
13:00 +41°C° 0 mm 7 mps 752 mmHg 34%
14:00 +41°C° 0 mm 6 mps 751 mmHg 31%
15:00 +41°C° 0 mm 6 mps 751 mmHg 31%
16:00 +41°C° 0 mm 6 mps 751 mmHg 31%
17:00 +41°C° 0 mm 6 mps 750 mmHg 30%
18:00 +40°C° 0 mm 6 mps 751 mmHg 34%
19:00 +39°C° 0 mm 7 mps 752 mmHg 38%
20:00 +38°C° 0 mm 8 mps 752 mmHg 42%
21:00 +36°C° 0 mm 7 mps 752 mmHg 44%
22:00 +35°C° 0 mm 7 mps 753 mmHg 46%
23:00 +35°C° 0 mm 7 mps 753 mmHg 48%
Mostrar más

Necesitamos Su Consentimiento

Meteoprog y nuestros Proveedores de Servicios pueden almacenar y acceder a sus datos personales como cookies, identificadores de dispositivo u otras tecnologías similares de su dispositivo y procesar dichos datos para personalizar contenido y anuncios, además de ofrecer funciones de redes sociales y analizar el tráfico.

  • Almacenar y/o acceder a información en su dispositivo

    Se puede almacenar o acceder a cookies, identificadores de dispositivo u otra información de su dispositivo para los fines anteriormente indicados.

  • Anuncios y contenido personalizados, medición de anuncios y contenido, percepciones del público, y desarrollo de productos

    Los anuncios y el contenido pueden personalizarse en base a su perfil. Se pueden añadir más datos para personalizar mejor los anuncios y contenidos. Se puede medir el rendimiento de los anuncios y contenidos. Se puede obtener la percepción sobre el público que ha visto los anuncios y contenidos. Dichos datos pueden usarse para desarrollar o mejorar la experiencia del usuario, sistemas y software.

Al hacer clic en ‘Estoy De Acuerdo’ usted permitirá el uso de las cookies, identificadores de dispositivo, balizas web u otras tecnologías similares indicadas. Su configuración puede cambiarse desde el navegador de su dispositivo.

Para ciertos fines, los intereses legítimos pueden ser considerados por encima del consentimiento. Puede leer más sobre ello en nuestra Política de Privacidad y Cookies.